Location: Caltech
(34.1382°N, 118.1253°W)
Time: 05:13:30
(UTC-08:00)

Cosmos 2219 - Visible Passes

Search period start: 01 February 2015 00:00
Search period end: 11 February 2015 00:00
Orbit: 832 x 862 km, 71.1° (Epoch: 01 February)

Date Brightness Start Highest point End Pass type
(mag) Time Alt. Az. Time Alt. Az. Time Alt. Az.
01 Feb 3.7 05:28:51 10° S 05:34:26 64° ESE 05:40:08 10° NNE visible
02 Feb 3.7 05:15:28 10° S 05:21:03 62° ESE 05:26:44 10° NNE visible
03 Feb 3.7 05:02:06 10° S 05:07:40 60° ESE 05:13:21 10° NNE visible
04 Feb 3.7 04:48:44 10° S 04:54:18 59° ESE 04:59:57 10° NNE visible
05 Feb 3.8 04:35:22 10° S 04:40:55 57° ESE 04:46:33 10° NNE visible
05 Feb 4.6 06:21:37 10° W 06:25:34 18° NW 06:29:20 10° NNW visible
06 Feb 3.8 04:24:07 23° S 04:27:32 56° ESE 04:33:10 10° NNE visible
06 Feb 4.6 06:08:08 10° W 06:12:10 19° NW 06:16:00 10° NNW visible
07 Feb 3.8 04:13:22 50° SE 04:14:09 54° ESE 04:19:46 10° NNE visible
07 Feb 4.5 05:55:24 12° W 05:58:46 19° NW 06:02:40 10° NNW visible
08 Feb 4.1 04:01:47 47° ENE 04:01:47 47° ENE 04:06:22 10° NNE visible
08 Feb 4.5 05:43:48 18° WNW 05:45:21 19° NW 05:49:20 10° NNW visible
09 Feb 4.7 03:49:49 32° NE 03:49:49 32° NE 03:52:58 10° NNE visible
09 Feb 4.5 05:31:48 20° WNW 05:31:57 20° NW 05:35:59 10° NNW visible
10 Feb 5.2 03:37:33 22° NE 03:37:33 22° NE 03:39:34 10° NNE visible
10 Feb 4.6 05:19:32 19° NW 05:19:32 19° NW 05:22:39 10° N visible
